{"data":{"norad_id":65641,"intl_designator":"2025-210V","name":"STARLINK-35134","alt_names":[],"object_type":"PAYLOAD","status":"ACTIVE","operator":null,"country":"US","launch_date":"2025-09-18","launch_site_code":"AFETR","launch_vehicle":null,"mission":null,"orbit_class":"UNKNOWN","rcs_meters":null,"size_class":null,"mass_kg":null,"dimensions":null,"purposes":["comms"],"wikipedia_slug":null,"has_3d_model":false,"image_url":null,"decayed_at":null,"tle_current":{"epoch":"2026-05-25T03:39:56.804256Z","epoch_age_seconds":61510,"freshness":"FRESH","line1":"1 65641U 25210V   26145.15274079  .00023187  00000+0  69521-3 0  9991","line2":"2 65641  53.1596 310.7989 0001294  62.4661 297.6473 15.34401834 39453","mean_motion":15.34401834,"eccentricity":0.0001294,"inclination_deg":53.1596,"raan_deg":310.7989,"arg_perigee_deg":62.4661,"mean_anomaly_deg":297.6473,"bstar":0.00069521,"rev_number":3945,"period_min":93.847645909422,"perigee_km":461.81258515632,"apogee_km":463.58299319976,"semimajor_km":6840.834789178,"source":"CELESTRAK","updated_at":"2026-05-25T13:38:20.885258Z"}}}